Weather History for Grosse Ile, MI

Change the Weather History Date:

Sunday, November 11, 2012

  Actual Average (KDTW) Record (KDTW)
Temperature  
Mean Temperature 11 °C 7 °C  
Max Temperature 14 °C 11 °C 21 °C (1964)
Min Temperature 8 °C 2 °C -7 °C (1926)
Degree Days  
Heating Degree Days 14 22  
Month to date heating degree days 217  
Since 1 July heating degree days 728  
Cooling Degree Days 0 0  
Month to date cooling degree days 0  
Year to date cooling degree days 803  
Growing Degree Days 2 (Base 50)    
Moisture  
Dew Point 6 °C    
Average Humidity 72    
Maximum Humidity 87    
Minimum Humidity 54    
Precipitation  
Precipitation 0.00 mm 2.29 mm 2.95 mm (1879)
Month to date precipitation 0.99  
Year to date precipitation 29.21  
Snow  
Snow 0.00 cm 0.00 cm 10.41 cm (1984)
Month to date snowfall 0.2  
Since 1 July snowfall 0.3  
Since 1 September snowfall 0.3  
Snow Depth -    
Sea Level Pressure  
Sea Level Pressure 1019 hPa    
Wind  
Wind Speed 16 km/h (South)    
Max Wind Speed 29 km/h    
Max Gust Speed 45 km/h    
Visibility 16 kilometers    
Events      
T = Trace of Precipitation, MM = Missing Value Source: NWS Daily Summary

Daily Weather History Graph

Daily Weather History Graph

Search for Another Location

Airport:

Trip Planner

Search our weather history database for the weather conditions in past years. The results will help you decide how hot, cold, wet, or windy it might be!

Date:

Astronomy

Nov. 11, 2012 Rise Set
Actual Time 7:18 AM EST 5:14 PM EST
Civil Twilight 6:48 AM EST 5:44 PM EST
Nautical Twilight 6:14 AM EST 6:17 PM EST
Astronomical Twilight 5:42 AM EST 6:50 PM EST
Moon 4:28 AM EST (11/11) 3:39 PM EST (11/11)
Length of Visible Light 10h 55m
Length of Day
9h 56m
Waning Crescent, 7% of the Moon is Illuminated
Nov 11
Waning Crescent
Nov 13
New
Nov 20
First Quarter
Nov 28
Full
Dec 6
Last Quarter

Hourly Weather History & Observations

Time (EST) Temp. Windchill Dew Point Humidity Pressure Visibility Wind Dir Wind Speed Gust Speed Precip Events Conditions
12:14 AM 11.0 °C - 7.0 °C 76% 1017.8 hPa 16.1 km South 16.7 km/h / 4.6 m/s 27.8 km/h / 7.7 m/s N/A   Clear
12:34 AM 14.0 °C - 7.0 °C 63% 1017.8 hPa 16.1 km South 16.7 km/h / 4.6 m/s - N/A   Clear
12:54 AM 12.0 °C - 7.0 °C 72% 1017.8 hPa 16.1 km SSW 16.7 km/h / 4.6 m/s - N/A   Clear
1:14 AM 12.0 °C - 7.0 °C 72% 1018.2 hPa 16.1 km South 14.8 km/h / 4.1 m/s - N/A   Clear
1:34 AM 11.0 °C - 7.0 °C 76% 1018.2 hPa 16.1 km South 13.0 km/h / 3.6 m/s - N/A   Clear
1:55 AM 12.0 °C - 7.0 °C 72% 1018.2 hPa 16.1 km South 13.0 km/h / 3.6 m/s - N/A   Clear
2:14 AM 11.0 °C - 7.0 °C 76% 1018.2 hPa 16.1 km South 14.8 km/h / 4.1 m/s - N/A   Clear
2:34 AM 10.0 °C - 7.0 °C 82% 1018.5 hPa 16.1 km South 13.0 km/h / 3.6 m/s - N/A   Clear
2:55 AM 11.0 °C - 7.0 °C 76% 1018.5 hPa 16.1 km South 14.8 km/h / 4.1 m/s - N/A   Clear
3:14 AM 10.0 °C - 7.0 °C 82% 1018.8 hPa 16.1 km South 14.8 km/h / 4.1 m/s - N/A   Clear
3:34 AM 11.0 °C - 7.0 °C 76% 1018.8 hPa 16.1 km South 13.0 km/h / 3.6 m/s - N/A   Clear
3:54 AM 10.0 °C - 6.0 °C 76% 1018.8 hPa 16.1 km South 14.8 km/h / 4.1 m/s - N/A   Clear
4:14 AM 9.0 °C - 6.0 °C 82% 1019.2 hPa 16.1 km SSE 13.0 km/h / 3.6 m/s - N/A   Clear
4:34 AM 9.0 °C - 6.0 °C 82% 1019.5 hPa 16.1 km South 14.8 km/h / 4.1 m/s - N/A   Clear
4:54 AM 9.0 °C - 6.0 °C 82% 1019.5 hPa 16.1 km South 11.1 km/h / 3.1 m/s - N/A   Clear
5:14 AM 9.0 °C - 6.0 °C 82% 1019.9 hPa 16.1 km South 13.0 km/h / 3.6 m/s - N/A   Clear
5:34 AM 9.0 °C - 6.0 °C 82% 1020.2 hPa 16.1 km South 16.7 km/h / 4.6 m/s - N/A   Clear
5:54 AM 8.0 °C 5.8 °C 6.0 °C 87% 1020.2 hPa 16.1 km South 13.0 km/h / 3.6 m/s - N/A   Clear
6:34 AM 8.0 °C 5.8 °C 6.0 °C 87% 1020.5 hPa 16.1 km SSE 13.0 km/h / 3.6 m/s - N/A   Clear
6:54 AM 8.0 °C 6.1 °C 6.0 °C 87% 1020.5 hPa 16.1 km South 11.1 km/h / 3.1 m/s - N/A   Clear
7:14 AM 8.0 °C 5.8 °C 6.0 °C 87% 1020.9 hPa 16.1 km South 13.0 km/h / 3.6 m/s - N/A   Clear
7:54 AM 9.0 °C - 6.0 °C 82% 1020.9 hPa 16.1 km South 16.7 km/h / 4.6 m/s - N/A   Clear
8:34 AM 9.0 °C - 6.0 °C 82% 1020.9 hPa 16.1 km South 18.5 km/h / 5.1 m/s - N/A   Clear
8:54 AM 9.0 °C - 6.0 °C 82% 1020.9 hPa 16.1 km South 20.4 km/h / 5.7 m/s - N/A   Clear
9:14 AM 10.0 °C - 6.0 °C 76% 1020.9 hPa 16.1 km South 20.4 km/h / 5.7 m/s - N/A   Clear
9:34 AM 10.0 °C - 6.0 °C 76% 1020.9 hPa 16.1 km South 16.7 km/h / 4.6 m/s - N/A   Clear
9:54 AM 11.0 °C - 7.0 °C 76% 1020.9 hPa 16.1 km South 16.7 km/h / 4.6 m/s - N/A   Clear
10:14 AM 11.0 °C - 7.0 °C 76% 1020.9 hPa 16.1 km South 18.5 km/h / 5.1 m/s - N/A   Clear
10:34 AM 12.0 °C - 7.0 °C 72% 1020.9 hPa 16.1 km South 16.7 km/h / 4.6 m/s - N/A   Clear
10:54 AM 12.0 °C - 7.0 °C 72% 1020.9 hPa 16.1 km South 16.7 km/h / 4.6 m/s - N/A   Clear
11:14 AM 13.0 °C - 7.0 °C 67% 1020.9 hPa 16.1 km South 24.1 km/h / 6.7 m/s 29.6 km/h / 8.2 m/s N/A   Clear
11:34 AM 12.0 °C - 7.0 °C 72% 1020.5 hPa 16.1 km South 18.5 km/h / 5.1 m/s - N/A   Clear
11:54 AM 13.0 °C - 7.0 °C 67% 1020.2 hPa 16.1 km South 20.4 km/h / 5.7 m/s - N/A   Clear
12:14 PM 12.0 °C - 7.0 °C 72% 1020.2 hPa 16.1 km South 18.5 km/h / 5.1 m/s - N/A   Clear
12:34 PM 12.0 °C - 7.0 °C 72% 1019.5 hPa 16.1 km South 20.4 km/h / 5.7 m/s - N/A   Clear
1:14 PM 14.0 °C - 7.0 °C 63% 1018.8 hPa 16.1 km SSE 16.7 km/h / 4.6 m/s - N/A   Clear
1:34 PM 14.0 °C - 8.0 °C 67% 1018.5 hPa 16.1 km South 16.7 km/h / 4.6 m/s 25.9 km/h / 7.2 m/s N/A   Clear
1:54 PM 13.0 °C - 7.0 °C 67% 1018.5 hPa 16.1 km South 16.7 km/h / 4.6 m/s - N/A   Clear
2:14 PM 14.0 °C - 8.0 °C 67% 1018.2 hPa 16.1 km South 20.4 km/h / 5.7 m/s - N/A   Clear
2:34 PM 14.0 °C - 8.0 °C 67% 1018.2 hPa 16.1 km South 20.4 km/h / 5.7 m/s - N/A   Clear
2:54 PM 13.0 °C - 7.0 °C 67% 1018.2 hPa 16.1 km South 16.7 km/h / 4.6 m/s - N/A   Clear
3:14 PM 13.0 °C - 7.0 °C 67% 1017.8 hPa 16.1 km South 16.7 km/h / 4.6 m/s - N/A   Clear
3:34 PM 12.0 °C - 6.0 °C 67% 1017.8 hPa 16.1 km South 14.8 km/h / 4.1 m/s - N/A   Clear
3:54 PM 13.0 °C - 6.0 °C 63% 1017.5 hPa 16.1 km South 16.7 km/h / 4.6 m/s - N/A   Clear
4:14 PM 12.0 °C - 7.0 °C 72% 1017.5 hPa 16.1 km South 16.7 km/h / 4.6 m/s - N/A   Clear
4:35 PM 11.0 °C - 6.0 °C 71% 1017.8 hPa 16.1 km South 11.1 km/h / 3.1 m/s - N/A   Clear
4:54 PM 11.0 °C - 6.0 °C 71% 1017.5 hPa 16.1 km SSE 14.8 km/h / 4.1 m/s - N/A   Clear
5:14 PM 11.0 °C - 6.0 °C 71% 1017.5 hPa 16.1 km South 13.0 km/h / 3.6 m/s - N/A   Clear
5:34 PM 10.0 °C - 6.0 °C 76% 1017.5 hPa 16.1 km South 13.0 km/h / 3.6 m/s - N/A   Clear
5:54 PM 13.0 °C - 6.0 °C 63% 1017.5 hPa 16.1 km South 22.2 km/h / 6.2 m/s - N/A   Clear
6:14 PM 12.0 °C - 6.0 °C 67% 1017.5 hPa 16.1 km South 24.1 km/h / 6.7 m/s - N/A   Clear
6:34 PM 13.0 °C - 5.0 °C 58% 1017.2 hPa 16.1 km South 24.1 km/h / 6.7 m/s - N/A   Clear
6:54 PM 12.0 °C - 5.0 °C 62% 1017.2 hPa 16.1 km South 20.4 km/h / 5.7 m/s - N/A   Clear
7:14 PM 12.0 °C - 5.0 °C 62% 1016.8 hPa 16.1 km SSE 22.2 km/h / 6.2 m/s 31.5 km/h / 8.7 m/s N/A   Clear
7:34 PM 12.0 °C - 5.0 °C 62% 1016.8 hPa 16.1 km SSE 22.2 km/h / 6.2 m/s - N/A   Clear
7:54 PM 12.0 °C - 5.0 °C 62% 1016.8 hPa 16.1 km SSE 25.9 km/h / 7.2 m/s 35.2 km/h / 9.8 m/s N/A   Clear
8:14 PM 13.0 °C - 4.0 °C 54% 1016.1 hPa 16.1 km SSE 29.6 km/h / 8.2 m/s 38.9 km/h / 10.8 m/s N/A   Clear
8:34 PM 12.0 °C - 4.0 °C 58% 1016.1 hPa 16.1 km SSE 25.9 km/h / 7.2 m/s 44.4 km/h / 12.3 m/s N/A   Clear
8:54 PM 12.0 °C - 4.0 °C 58% 1016.1 hPa 16.1 km SSE 24.1 km/h / 6.7 m/s 37.0 km/h / 10.3 m/s N/A   Clear
9:15 PM 12.0 °C - 4.0 °C 58% 1016.1 hPa 16.1 km SSE 22.2 km/h / 6.2 m/s - N/A   Clear
9:34 PM 11.0 °C - 6.0 °C 71% 1016.5 hPa 16.1 km South 13.0 km/h / 3.6 m/s - N/A   Clear
9:54 PM 9.0 °C - 6.0 °C 82% 1016.5 hPa 16.1 km South 9.3 km/h / 2.6 m/s - N/A   Clear
10:14 PM 9.0 °C - 6.0 °C 82% 1016.1 hPa 16.1 km South 11.1 km/h / 3.1 m/s - N/A   Clear
10:34 PM 9.0 °C - 6.0 °C 82% 1016.1 hPa 16.1 km South 9.3 km/h / 2.6 m/s - N/A   Clear
10:54 PM 10.0 °C - 6.0 °C 76% 1015.8 hPa 16.1 km South 13.0 km/h / 3.6 m/s - N/A   Clear
11:14 PM 11.0 °C - 6.0 °C 71% 1015.5 hPa 16.1 km South 14.8 km/h / 4.1 m/s - N/A   Clear
11:34 PM 11.0 °C - 6.0 °C 71% 1015.5 hPa 16.1 km South 14.8 km/h / 4.1 m/s - N/A   Clear
11:54 PM 11.0 °C - 5.0 °C 67% 1015.5 hPa 16.1 km South 14.8 km/h / 4.1 m/s - N/A   Clear